Home > Weather > Eilat > Past weeks

Flag for Israel Past Weather in Eilat, Israel — Yesterday and Last 2 Weeks

Now
91 °F

Clear.


Feels Like: 92 °F
Forecast: 81 / 102 °F
Wind: 14 mph from Northwest

Location: Eilat

Current Time: Aug 27, 2016 at 11:50:18 PM

Latest Report: Aug 27, 2016 at 10:50 PM


Visibility: 10 mi

Pressure: 29.83 "Hg

Humidity: 38%

Dew Point: 63 °F

Location of EilatLocation

Past Weather in Eilat — Graph

°F

Eilat Temperature Yesterday

Maximum temperature yesterday: 104 °F (at 4:50 PM)
Minimum temperature yesterday: 82 °F (at 6:50 AM)
Average temperature yesterday: 94 °F

High & Low Weather Summary for the Past Weeks

 TemperatureHumidityPressure
High106 °F (Aug 13, 3:50 PM)58% (Aug 15, 5:50 AM)29.86 "Hg (Aug 15, 5:50 AM)
Low79 °F (Aug 19, 6:50 AM)14% (Aug 14, 3:50 PM)29.62 "Hg (Aug 17, 3:50 PM)
Average95 °F34%29.72 "Hg
* Reported Aug 13 7:50 AM — Aug 27 9:50 PM, Eilat, Weather by CustomWeather, © 2016

Note: Actual official high and low records may vary slightly from our data, if they occured in-between our weather recording intervals... More about our weather records

Advertising

Eilat Weather History for the Previous 24 Hours

Scroll right to see more
 ConditionsComfort  
Time TempWeatherWind HumidityBarometerVisibility
9:50 PM
Sat, Aug 27
93 °FClear.13 mph34%29.83 "Hg10 mi
8:50 PM95 °FClear.14 mph30%29.80 "Hg10 mi
7:50 PM99 °FSunny.18 mph25%29.77 "Hg10 mi
6:50 PM100 °FSunny.21 mph22%29.74 "Hg10 mi
5:50 PM100 °FSunny.18 mph22%29.77 "Hg10 mi
4:50 PM102 °FSunny.23 mph24%29.74 "Hg10 mi
3:50 PM102 °FSunny.24 mph26%29.74 "Hg10 mi
2:50 PM100 °FSunny.23 mph29%29.74 "Hg10 mi
1:50 PM99 °FSunny.22 mph31%29.77 "Hg10 mi
12:50 PM97 °FSunny.23 mph34%29.80 "Hg10 mi
11:50 AM93 °FSunny.21 mph41%29.83 "Hg10 mi
10:50 AM90 °FSunny.22 mph46%29.86 "Hg10 mi
9:50 AM88 °FClear.22 mph52%29.86 "Hg6 mi
8:50 AM86 °FSunny.20 mph52%29.86 "Hg10 mi
7:50 AM84 °FSunny.17 mph55%29.86 "Hg10 mi
6:50 AM84 °FClear.17 mph55%29.83 "Hg10 mi
Weather by CustomWeather, © 2016

See weather overviewHow to use our weather pages